Wilmington, North Carolina
Current Conditions -  °F | °C
As of 12:53 AM on Thursday 23 Oct 2014 (Local Time) from KILM Reporting Station
Clear Clear  
Wind Chill: 52°   Ceiling: Unl
Heat Index: 52°   Visibility: 10mi
Dew Point: 44°   Wind: 7mph
Humidity: 74%   Direction: 310°NW
Pressure: 30.01"   Gusts: NA
Location:  34.24°N, 77.94°W
Report Text: KILM 230453Z AUTO 31006KT 10SM CLR 11/07 A3001 RMK AO2 SLP162 T01110067 402060100
Loading
Personal Weather Stations






























Interactive Weather Map
Tropical Storm Tracking
New forecast layout! Learn more

10-Day Weather Forecast

Advertisements
Track Severe Weather on mobile